Location: Malvern Link
(52.1333°N, 2.3000°W)
Time: 10:57:05
(UTC+00:00)

NOSS 3-4 (C) - Pass Details

Date: 18 September 2020
Orbit: 886 x 1326 km, 63.4° (Epoch: 22 October)

Event Time Altitude Azimuth Distance (km) Brightness Sun altitude
Exits shadow 22:41:38 50° 22° (NNE) 1,219 4.1 -33.8°
Drops below altitude 10° 22:46:35 10° 45° (NE) 2,818 6.1 -34.1°
Sets 22:49:21 0° 48° (NE) 3,838 6.8 -34.3°
